K5BOU Weather Reports


Display with metric or nautical units.
time (UTC)temp
F
wind
direction
speed
MPH
gust
MPH
rain 1hr
in
rain 24hr
in
rain mn
in
humidity
%
barometer
mb
20260504231521 79 127 4.0 6.0 0.00 0.00 0.00 78 1008.5
20260504231017 78 187 2.0 5.0 0.00 0.00 0.00 78 1008.6
20260504230513 79 156 5.0 10.0 0.00 0.00 0.00 77 1008.8
20260504230012 80 158 2.0 7.0 0.00 0.00 0.00 77 1008.9
20260504225509 79 106 7.0 8.0 0.00 0.00 0.00 76 1008.9
20260504225006 78 115 3.0 9.0 0.00 0.00 0.00 77 1008.7
20260504224502 78 151 5.0 8.0 0.00 0.00 0.00 76 1009.0
20260504223959 78 198 2.0 6.0 0.00 0.00 0.00 76 1008.8
20260504223456 78 145 2.0 2.0 0.00 0.00 0.00 76 1008.8
20260504222951 78 132 4.0 7.0 0.00 0.00 0.00 75 1008.9
20260504222449 78 205 6.0 7.0 0.00 0.00 0.00 75 1009.1
20260504221946 79 217 6.0 8.0 0.00 0.00 0.00 74 1009.2
20260504221444 79 172 5.0 8.0 0.00 0.00 0.00 74 1009.0
20260504220941 79 212 7.0 11.0 0.00 0.00 0.00 74 1009.3
20260504220437 79 168 3.0 7.0 0.00 0.00 0.00 74 1009.5
20260504215934 79 172 6.0 10.0 0.00 0.00 0.00 74 1009.4
20260504215431 79 192 3.0 7.0 0.00 0.00 0.00 74 1009.5
20260504214927 79 175 5.0 7.0 0.00 0.00 0.00 74 1009.5
20260504214424 79 219 6.0 7.0 0.00 0.00 0.00 73 1009.6
20260504213920 79 198 3.0 7.0 0.00 0.00 0.00 73 1009.5
20260504213416 79 212 8.0 11.0 0.00 0.00 0.00 73 1009.5
20260504212914 79 146 3.0 10.0 0.00 0.00 0.00 73 1009.6
20260504212409 80 158 4.0 8.0 0.00 0.00 0.00 73 1009.7
20260504211908 79 207 8.0 10.0 0.00 0.00 0.00 72 1009.9
20260504211404 79 202 3.0 6.0 0.00 0.00 0.00 72 1009.9
20260504210901 80 176 6.0 10.0 0.00 0.00 0.00 72 1009.8
20260504210358 80 214 4.0 8.0 0.00 0.00 0.00 71 1010.1
20260504205855 80 211 6.0 10.0 0.00 0.00 0.00 71 1010.1
20260504205353 80 172 3.0 8.0 0.00 0.00 0.00 70 1010.0
20260504204851 81 201 3.0 8.0 0.00 0.00 0.00 69 1010.3
20260504204349 82 160 3.0 6.0 0.00 0.00 0.00 69 1010.1
20260504203848 81 159 6.0 9.0 0.00 0.00 0.00 69 1010.3
20260504203344 81 202 5.0 8.0 0.00 0.00 0.00 69 1010.2
20260504202840 82 209 3.0 6.0 0.00 0.00 0.00 69 1010.3
20260504202338 81 181 6.0 11.0 0.00 0.00 0.00 70 1010.2
20260504201834 81 162 3.0 11.0 0.00 0.00 0.00 68 1010.4
20260504201331 80 149 3.0 7.0 0.00 0.00 0.00 69 1010.7
20260504200829 81 212 4.0 7.0 0.00 0.00 0.00 68 1010.7
20260504200325 81 184 1.0 6.0 0.00 0.00 0.00 69 1010.6
20260504195821 81 172 4.0 7.0 0.00 0.00 0.00 67 1010.7
20260504195317 81 125 3.0 7.0 0.00 0.00 0.00 68 1010.8
20260504194814 81 168 3.0 5.0 0.00 0.00 0.00 68 1011.0
20260504194310 81 214 5.0 7.0 0.00 0.00 0.00 69 1010.9
20260504193807 82 203 7.0 8.0 0.00 0.00 0.00 67 1011.1
20260504193304 81 146 4.0 7.0 0.00 0.00 0.00 68 1011.1
20260504192803 80 136 2.0 7.0 0.00 0.00 0.00 69 1011.2
20260504192300 80 192 2.0 7.0 0.00 0.00 0.00 68 1011.2
20260504191759 80 184 4.0 7.0 0.00 0.00 0.00 70 1011.2
20260504191255 80 165 5.0 10.0 0.00 0.00 0.00 67 1011.3
20260504190751 81 170 2.0 5.0 0.00 0.00 0.00 67 1011.2
20260504190247 81 166 6.0 10.0 0.00 0.00 0.00 68 1011.2
20260504185744 80 215 5.0 8.0 0.00 0.00 0.00 68 1011.4
20260504185241 80 196 3.0 5.0 0.00 0.00 0.00 69 1011.6
20260504184737 81 199 4.0 10.0 0.00 0.00 0.00 68 1011.8
20260504184233 81 147 4.0 6.0 0.00 0.00 0.00 66 1011.7
20260504183729 80 210 6.0 11.0 0.00 0.00 0.00 68 1011.5
20260504183226 81 212 5.0 7.0 0.00 0.00 0.00 67 1011.7
20260504182724 80 151 4.0 10.0 0.00 0.00 0.00 70 1011.9
20260504182221 80 197 6.0 9.0 0.00 0.00 0.00 66 1011.6
20260504181719 81 199 6.0 13.0 0.00 0.00 0.00 67 1011.7
20260504181216 80 196 4.0 7.0 0.00 0.00 0.00 66 1011.7
20260504180715 80 183 2.0 6.0 0.00 0.00 0.00 67 1011.7
20260504180213 80 151 3.0 8.0 0.00 0.00 0.00 68 1011.9
20260504175710 80 203 9.0 10.0 0.00 0.00 0.00 66 1012.1
20260504175207 80 202 3.0 10.0 0.00 0.00 0.00 68 1012.2
20260504174705 80 214 6.0 10.0 0.00 0.00 0.00 67 1012.3
20260504174203 79 198 6.0 10.0 0.00 0.00 0.00 68 1012.5
20260504173658 79 211 7.0 9.0 0.00 0.00 0.00 69 1012.4
20260504173156 79 175 4.0 7.0 0.00 0.00 0.00 67 1012.4
20260504172652 80 142 3.0 8.0 0.00 0.00 0.00 68 1012.5
20260504172149 79 169 3.0 9.0 0.00 0.00 0.00 69 1012.8
20260504171645 77 211 2.0 7.0 0.00 0.00 0.00 73 1012.7
20260504171143 78 166 3.0 8.0 0.00 0.00 0.00 72 1012.7
20260504170639 78 138 4.0 7.0 0.00 0.00 0.00 70 1012.8
20260504170137 79 212 6.0 14.0 0.00 0.00 0.00 70 1013.2
20260504151022 74 168 7.0 9.0 0.00 0.00 0.00 78 1013.9
20260504150520 75 175 4.0 8.0 0.00 0.00 0.00 77 1013.7
20260504140945 71 177 0.0 2.0 0.00 0.00 0.00 81 1013.8
20260504140442 70 170 2.0 3.0 0.00 0.00 0.00 81 1014.0
20260504130401 61 169 0.0 0.0 0.00 0.00 0.00 94 1013.5
20260504110248 55 177 0.0 0.0 0.00 0.00 0.00 99 1013.4
20260504100212 55 189 0.0 0.0 0.00 0.00 0.00 99 1013.8
20260504090134 56 188 0.0 0.0 0.00 0.00 0.00 99 1014.4
20260504081604 56 188 0.0 0.0 0.00 0.00 0.00 99 1014.2
20260504081100 56 188 0.0 0.0 0.00 0.00 0.00 99 1014.5
20260504080557 56 184 0.0 0.0 0.00 0.00 0.00 99 1014.3
20260504050410 58 188 0.0 0.0 0.00 0.00 0.00 92 1016.5
20260504045907 59 188 0.0 0.0 0.00 0.00 0.00 91 1016.6
20260504045402 59 188 0.0 0.0 0.00 0.00 0.00 91 1016.4
20260504044859 59 188 0.0 0.0 0.00 0.00 0.00 90 1016.5
20260504044356 59 188 0.0 0.0 0.00 0.00 0.00 89 1016.6
20260504043854 59 188 0.0 0.0 0.00 0.00 0.00 88 1016.6
20260504043350 60 188 0.0 0.0 0.00 0.00 0.00 87 1016.6
20260504042848 60 188 0.0 0.0 0.00 0.00 0.00 87 1016.6
20260504042344 60 188 0.0 0.0 0.00 0.00 0.00 85 1016.7
20260504041840 61 188 0.0 0.0 0.00 0.00 0.00 84 1016.7
20260504041337 61 188 0.0 0.0 0.00 0.00 0.00 82 1016.9
20260504040833 62 188 0.0 0.0 0.00 0.00 0.00 81 1016.8
20260504040331 62 188 0.0 0.0 0.00 0.00 0.00 81 1016.5
20260504035826 62 188 0.0 0.0 0.00 0.00 0.00 80 1016.7
20260504035324 63 188 0.0 0.0 0.00 0.00 0.00 80 1016.6
20260504034821 64 188 0.0 0.0 0.00 0.00 0.00 78 1016.7
20260504034319 64 188 0.0 0.0 0.00 0.00 0.00 77 1016.3
20260504033815 65 187 0.0 0.0 0.00 0.00 0.00 76 1016.4
20260504033314 65 174 0.0 1.0 0.00 0.00 0.00 75 1016.6
20260504032809 65 187 0.0 0.0 0.00 0.00 0.00 74 1016.6
20260504032307 66 188 0.0 3.0 0.00 0.00 0.00 73 1016.6
20260504031804 66 178 0.0 3.0 0.00 0.00 0.00 72 1016.6
20260504031301 66 181 1.0 2.0 0.00 0.00 0.00 72 1016.4
20260504030757 66 168 0.0 1.0 0.00 0.00 0.00 72 1016.5
20260504030254 66 154 1.0 3.0 0.00 0.00 0.00 72 1016.4
20260504025750 66 171 1.0 2.0 0.00 0.00 0.00 72 1016.6
20260504025247 67 182 1.0 3.0 0.00 0.00 0.00 72 1016.4
20260504024744 67 186 1.0 1.0 0.00 0.00 0.00 71 1016.6
20260504024241 67 185 1.0 2.0 0.00 0.00 0.00 70 1016.4
20260504023738 68 148 0.0 2.0 0.00 0.00 0.00 69 1016.1
20260504023234 68 171 1.0 2.0 0.00 0.00 0.00 68 1016.2
20260504022730 68 165 1.0 1.0 0.00 0.00 0.00 68 1016.2
20260504022226 68 157 1.0 3.0 0.00 0.00 0.00 67 1016.1
20260504021724 68 174 1.0 2.0 0.00 0.00 0.00 67 1016.0
20260504021221 68 184 1.0 3.0 0.00 0.00 0.00 67 1016.0
20260504020717 69 194 1.0 5.0 0.00 0.00 0.00 66 1016.1
20260504020214 68 165 1.0 3.0 0.00 0.00 0.00 66 1016.0
20260504015710 68 164 1.0 3.0 0.00 0.00 0.00 66 1016.0
20260504015207 69 150 1.0 2.0 0.00 0.00 0.00 67 1015.9
20260504014702 69 184 0.0 2.0 0.00 0.00 0.00 64 1015.9
20260504014200 70 172 0.0 3.0 0.00 0.00 0.00 63 1015.9
20260504013657 70 175 0.0 1.0 0.00 0.00 0.00 62 1015.8
20260504013154 70 156 3.0 5.0 0.00 0.00 0.00 61 1015.7
20260504012651 71 128 2.0 6.0 0.00 0.00 0.00 61 1015.7
20260504012149 71 159 0.0 2.0 0.00 0.00 0.00 61 1015.6
20260504011646 71 159 1.0 2.0 0.00 0.00 0.00 60 1015.9
20260504011142 71 174 2.0 6.0 0.00 0.00 0.00 59 1015.8
20260504010638 72 147 3.0 6.0 0.00 0.00 0.00 58 1015.7
20260504010134 72 142 1.0 7.0 0.00 0.00 0.00 58 1015.9
20260504005631 72 134 3.0 6.0 0.00 0.00 0.00 57 1015.7
20260504005128 73 160 0.0 5.0 0.00 0.00 0.00 58 1015.8
20260504004626 73 166 1.0 2.0 0.00 0.00 0.00 57 1015.7
20260504004123 73 177 1.0 3.0 0.00 0.00 0.00 56 1015.7
20260504003619 74 163 1.0 3.0 0.00 0.00 0.00 56 1015.7
20260504003116 74 142 0.0 3.0 0.00 0.00 0.00 55 1015.7
20260504002613 74 147 1.0 5.0 0.00 0.00 0.00 55 1015.7
20260504002110 74 187 2.0 6.0 0.00 0.00 0.00 54 1015.8
20260504001608 75 156 0.0 5.0 0.00 0.00 0.00 54 1015.8
20260504001103 75 173 0.0 3.0 0.00 0.00 0.00 53 1015.5
20260504000601 75 201 2.0 5.0 0.00 0.00 0.00 53 1015.4
20260504000059 75 173 0.0 3.0 0.00 0.00 0.00 53 1015.6
20260503235556 75 155 4.0 8.0 0.00 0.00 0.00 51 1015.7
20260503235053 76 175 2.0 7.0 0.00 0.00 0.00 51 1015.6
20260503234551 77 166 1.0 6.0 0.00 0.00 0.00 51 1015.8
20260503234049 77 103 3.0 6.0 0.00 0.00 0.00 52 1015.9
20260503233545 77 160 3.0 9.0 0.00 0.00 0.00 51 1015.8
20260503233041 78 135 6.0 9.0 0.00 0.00 0.00 50 1015.7
20260503232539 78 199 5.0 7.0 0.00 0.00 0.00 50 1015.8
20260503232036 78 160 3.0 6.0 0.00 0.00 0.00 50 1015.9